Tracking 22223 objects as of 26-Jan-2021
HD Live streaming from Space Station
objects crossing your sky now

OPS 6026 (DMSP 4A F1)

Track OPS 6026 (DMSP 4A F1) now!
10-day predictions
OPS 6026 (DMSP 4A F1) is classified as:


NORAD ID: 2418
Int'l Code: 1966-082A
Perigee: 675.5 km
Apogee: 843.9 km
Inclination: 98.2 °
Period: 99.9 minutes
Semi major axis: 7130 km
RCS: 0.634 m2 (medium)
Launch date: September 16, 1966
Source: United States (US)
Launch site: AIR FORCE WESTERN TEST RANGE (AFWTR)
aabbcc
Your satellite tracking list
Your tracking list is empty




NASA's NSSDC Master Catalog

Two Line Element Set (TLE):
1 02418U 66082A   21025.80501235  .00000038  00000-0  23724-4 0  9994
2 02418  98.1764 219.8497 0118100 229.1524 129.9383 14.41789263828499
Source of the keplerian elements: AFSPC